This demonstration page uses our WeatherBlox Daily Observations layout. Learn more.

Hourly Observations for December 1, 2016

Temp ( °F °C ) Dew Point ( °F °C ) Humidity (%) Winds ( mph kmh ) Pressure ( in mb ) Visibility ( mi km ) Precip ( " mm )
12:15 am 00:15 Clear 25 -4 19 -7.3 78 78 W 9 15 30.12 1020 10 16.0934 0 0
12:35 am 00:35 Clear 26 -3.4 19 -7 76 76 W 10 17 30.09 1019 10 16.0934 0 0
12:55 am 00:55 Clear 27 -3 19 -7 74 74 W 12 19 30.09 1019 10 16.0934 0 0
1:15 am 01:15 Clear 27 -2.6 20 -6.8 73 73 W 12 19 30.09 1019 10 16.0934 0 0
1:35 am 01:35 Clear 27 -2.7 19 -7 73 73 W 10 17 30.09 1019 10 16.0934 0 0
1:55 am 01:55 Clear 27 -2.7 19 -7 73 73 W 8 13 30.09 1019 10 16.0934 0 0
2:15 am 02:15 Clear 26 -3.2 19 -7.4 73 73 WNW 7 11 30.09 1019 10 16.0934 0 0
2:35 am 02:35 Clear 26 -3.4 19 -7.5 74 74 WNW 8 13 30.09 1019 10 16.0934 0 0
2:55 am 02:55 Clear 25 -3.7 18 -7.6 75 75 WNW 8 13 30.09 1019 10 16.0934 0 0
3:15 am 03:15 Clear 25 -3.8 19 -7.5 76 76 W 9 15 30.12 1020 10 16.0934 0 0
3:35 am 03:35 Clear 23 -5 18 -8 80 80 W 6 9 30.12 1020 10 16.0934 0 0
3:55 am 03:55 Clear 23 -5 17 -8.1 79 79 W 6 9 30.12 1020 10 16.0934 0 0
4:15 am 04:15 Clear 21 -6 17 -8.2 85 85 W 7 11 30.12 1020 10 16.0934 0 0
4:35 am 04:35 Clear 21 -6.1 18 -7.9 87 87 W 6 9 30.12 1020 10 16.0934 0 0
4:55 am 04:55 Clear 22 -5.6 19 -7.3 88 88 W 7 11 30.12 1020 10 16.0934 0 0
5:15 am 05:15 Clear 21 -6.1 18 -7.9 87 87 W 7 11 30.12 1020 10 16.0934 0 0
5:35 am 05:35 Clear 21 -6.1 17 -8.1 86 86 W 8 13 30.12 1020 10 16.0934 0 0
5:55 am 05:55 Clear 21 -6.3 17 -8.5 85 85 W 7 11 30.12 1020 10 16.0934 0 0
6:15 am 06:15 Clear 21 -6.2 17 -8.2 86 86 W 7 11 30.12 1020 10 16.0934 0 0
6:35 am 06:35 Clear 22 -5.7 18 -7.6 87 87 W 6 9 30.15 1021 10 16.0934 0 0
6:55 am 06:55 Clear 22 -5.4 18 -8 82 82 W 6 9 30.15 1021 10 16.0934 0 0
7:15 am 07:15 Clear 20 -6.6 16 -8.7 85 85 W 8 13 30.18 1022 10 16.0934 0 0
7:35 am 07:35 Clear 21 -6.2 17 -8.5 84 84 WSW 7 11 30.15 1021 10 16.0934 0 0
7:55 am 07:55 Sunny 20 -6.5 16 -8.9 83 83 W 6 9 30.18 1022 10 16.0934 0 0
8:15 am 08:15 Sunny 21 -6 17 -8.5 83 83 W 6 9 30.15 1021 10 16.0934 0 0
8:35 am 08:35 Sunny 22 -5.4 17 -8.5 79 79 W 5 7 30.15 1021 10 16.0934 0 0
8:55 am 08:55 Sunny 24 -4.6 17 -8.1 77 77 WNW 6 9 30.15 1021 10 16.0934 0 0
9:15 am 09:15 Sunny 25 -3.9 19 -7.5 76 76 NW 6 9 30.15 1021 10 16.0934 0 0
9:35 am 09:35 Sunny 28 -2.4 21 -6.3 75 75 WNW 6 9 30.12 1020 10 16.0934 0 0
9:55 am 09:55 Sunny 30 -1.2 21 -6 70 70 NW 3 6 30.12 1020 10 16.0934 0 0
10:15 am 10:15 Sunny 32 -0.2 21 -6 65 65 WNW 5 7 30.09 1019 10 16.0934 0 0
10:35 am 10:35 Sunny 33 0.3 22 -5.5 65 65 WNW 6 9 30.12 1020 10 16.0934 0 0
10:55 am 10:55 Sunny 34 1.2 21 -5.9 60 60 WNW 6 9 30.12 1020 10 16.0934 0 0
11:15 am 11:15 Sunny 36 2.2 22 -5.5 57 57 NW 7 11 30.09 1019 10 16.0934 0 0
11:35 am 11:35 Sunny 38 3.2 22 -5.5 53 53 WNW 5 7 30.06 1018 10 16.0934 0 0
11:55 am 11:55 Sunny 39 3.8 22 -5.8 50 50 W 3 6 30.06 1018 10 16.0934 0 0
12:15 pm 12:15 Sunny 40 4.4 20 -6.6 45 45 W 3 6 30.06 1018 10 16.0934 0 0
12:35 pm 12:35 Sunny 39 4 20 -6.5 47 47 W 5 7 30.03 1017 10 16.0934 0 0
12:55 pm 12:55 Sunny 40 4.5 21 -5.9 47 47 W 5 7 30.03 1017 10 16.0934 0 0
1:15 pm 13:15 Sunny 41 5.2 21 -6.2 44 44 SW 3 6 30.03 1017 10 16.0934 0 0
1:35 pm 13:35 Sunny 42 5.6 20 -6.4 42 42 SSW 5 7 30.03 1017 10 16.0934 0 0
1:55 pm 13:55 Sunny 42 5.8 22 -5.7 44 44 S 6 9 30 1016 10 16.0934 0 0
2:15 pm 14:15 Sunny 42 5.8 22 -5.6 44 44 SW 5 7 30 1016 10 16.0934 0 0
2:35 pm 14:35 Sunny 42 5.6 21 -6.2 43 43 SW 7 11 30.03 1017 10 16.0934 0 0
2:55 pm 14:55 Sunny 42 5.6 21 -6.1 43 43 SSW 7 11 30.03 1017 10 16.0934 0 0
3:15 pm 15:15 Sunny 42 5.6 21 -6.1 43 43 SSW 7 11 30.03 1017 10 16.0934 0 0
3:35 pm 15:35 Sunny 42 5.7 20 -6.4 42 42 SSW 8 13 30 1016 10 16.0934 0 0
3:55 pm 15:55 Sunny 42 5.7 20 -6.6 41 41 SSW 8 13 30 1016 10 16.0934 0 0
4:15 pm 16:15 Sunny 41 4.8 20 -6.6 44 44 SW 6 9 30.03 1017 10 16.0934 0 0
4:35 pm 16:35 Sunny 38 3.6 20 -6.7 47 47 SSW 5 7 30.03 1017 10 16.0934 0 0
4:55 pm 16:55 Sunny 38 3.5 20 -6.9 47 47 SSW 5 7 30.03 1017 10 16.0934 0 0
5:15 pm 17:15 Clear 37 2.5 19 -7.1 50 50 SSW 5 7 30.03 1017 10 16.0934 0 0
5:35 pm 17:35 Clear 36 2.3 19 -7.5 49 49 SSW 6 9 30.06 1018 10 16.0934 0 0
5:55 pm 17:55 Clear 34 1.2 18 -7.6 52 52 SSW 3 6 30.06 1018 10 16.0934 0 0
6:15 pm 18:15 Clear 33 0.6 19 -7.2 56 56 SSW 3 6 30.06 1018 10 16.0934 0 0
6:35 pm 18:35 Clear 31 -0.3 18 -7.6 58 58 Calm 30.06 1018 10 16.0934 0 0
6:55 pm 18:55 Clear 29 -1.7 17 -8.1 62 62 Calm 30.12 1020 10 16.0934 0 0
7:15 pm 19:15 Clear 27 -2.7 17 -8.3 66 66 Calm 30.12 1020 10 16.0934 0 0
7:35 pm 19:35 Clear 28 -2.3 17 -8.2 64 64 Calm 30.12 1020 10 16.0934 0 0
7:55 pm 19:55 Clear 28 -2.3 18 -8 65 65 Calm 30.12 1020 10 16.0934 0 0
8:15 pm 20:15 Clear 25 -3.8 16 -8.7 69 69 S 3 6 30.15 1021 10 16.0934 0 0
8:35 pm 20:35 Clear 26 -3.3 17 -8.1 70 70 S 3 6 30.12 1020 10 16.0934 0 0
8:55 pm 20:55 Clear 24 -4.5 15 -9.2 70 70 S 3 6 30.15 1021 10 16.0934 0 0
9:15 pm 21:15 Clear 24 -4.5 17 -8.6 73 73 SSE 6 9 30.18 1022 10 16.0934 0 0
9:35 pm 21:35 Clear 24 -4.3 16 -8.7 72 72 Calm 30.18 1022 10 16.0934 0 0
9:55 pm 21:55 Clear 24 -4.7 15 -9.2 71 71 SSE 3 6 30.18 1022 10 16.0934 0 0
10:15 pm 22:15 Clear 26 -3.4 17 -8.1 70 70 SSW 3 6 30.18 1022 10 16.0934 0 0
10:35 pm 22:35 Clear 24 -4.5 17 -8.6 73 73 N 6 9 30.18 1022 10 16.0934 0 0
10:55 pm 22:55 Clear 23 -4.9 17 -8.2 78 78 N 3 6 30.21 1023 10 16.0934 0 0
11:15 pm 23:15 Clear 23 -5.1 17 -8.6 77 77 Calm 30.21 1023 10 16.0934 0 0
11:35 pm 23:35 Clear 20 -6.6 15 -9.5 80 80 Calm 30.24 1024 10 16.0934 0 0
11:55 pm 23:55 Clear 20 -6.6 15 -9.2 82 82 Calm 30.24 1024 10 16.0934 0 0

Powered by AerisWeather